Погода в Медведке

Россия / Оренбургская область     52°37′53″N   52°29′49″E
темп.,
°C
ветер,
м/с
пор.,
м/с
влажн.,
%
обл.,
%
осадки,
мм/ч
давл.,
гПа
погр.,
м
25 января, пн
пн2523:00−3ююз5119590 0.0 1032247
02:00−2ююз699755 0.0 1032354
05:00−1ююз589778 0.0 1033497
08:00−1ю4896100 0.0 1032405
11:00−2ю6994100 0.1 1033396
14:00−4ю579593 0.1 1032343
17:00−4ююв599595 0.1 1032484
20:00−1ю41093100 0.1 1032603
26 января, вт
вт2623:00−1ю61092100 0.1 1032615
02:00−1ю51094100 0.0 1032575
05:00−2ю4993100 0.1 1031494
08:00−4ююв5994100 0.0 1031339
11:00−5ююв61094100 0.1 1032363
14:00−5ю599399 0.0 1031402
17:00−5ююв51090100 0.0 1031357
20:00−7ю5129299 0.0 1031309
27 января, ср
ср2723:00−8ю51293100 0.0 1031277
02:00−8ююв51093100 0.0 1031266
05:00−8ююв51093100 0.0 1031254
08:00−9ююв4993100 0.0 1031263
11:00−8ююв5119297 0.0 1030303
14:00−6ю6129092 0.0 1030356
17:00−6ююв5119096 0.0 1029341
20:00−7ююв61390100 0.0 1030299
28 января, чт
чт2823:00−8ююв51289100 0.0 1028273
02:00−8ююв51188100 0.0 1028271
05:00−9ююв51188100 0.0 1028256
08:00−9ююв51088100 0.0 1027256
11:00−9ююв51089100 0.0 1026273
14:00−7ююв5888100 0.0 1025328
17:00−7юв4889100 0.0 1024264
20:00−9юв4989100 0.0 1023192
29 января, пт
пт2923:00−9юв41088100 0.0 1022211
02:00−9юв51187100 0.0 1021226
05:00−8юв61184100 0.0 1019271
08:00−6юв61285100 0.0 1017322
11:00−6юв71483100 0.0 1015363
14:00−3юв81581100 0.0 1013569
17:00−2юв71391100 0.4 1011580
20:00−2юв61196100 2.2 1010498